Regional Weather Roundup
Issued by NWS

Home | Current Version | Previous Version | Graphics & Text | Print | Product List | Glossary On
Versions: 1 2 3 4 5 6 7 8 9 10 11 12 13 14 15 16 17 18 19 20 21 22 23 24 25 26 27 28 29 30 31 32 33 34 35 36 37 38 39 40 41 42 43 44 45 46 47 48 49 50
000
ASUS43 KLMK 271502
RWRKY
KENTUCKY REGIONAL WEATHER ROUNDUP
NATIONAL WEATHER SERVICE LOUISVILLE KY
1100 AM EDT THU JUL 27 2017

NOTE "FAIR" INDICATES FEW OR NO CLOUDS BELOW 12,000 FEET
WITH NO SIGNIFICANT WEATHER AND/OR OBSTRUCTIONS TO VISIBILITY.

KYZ001>023-026-027-061>063-070>075-271600-
WESTERN AND SOUTH CENTRAL KENTUCKY

CITY           SKY/WX    TMP DP  RH WIND       PRES   REMARKS
PADUCAH        CLOUDY    86  75  69 W9        29.97F HX  95
HENDERSON      CLOUDY    79  76  90 SW3       29.97S
OWENSBORO      CLOUDY    80  76  87 SW6       29.98S
HOPKINSVILLE   CLOUDY    85  74  68 W14       30.00S HX  93
BOWLING GREEN  CLOUDY    86  76  71 SW8       30.00S HX  96
GLASGOW        NOT AVBL
$$

KYZ024-025-028>034-038-045-046-053-271600-
NORTH CENTRAL KENTUCKY

CITY           SKY/WX    TMP DP  RH WIND       PRES   REMARKS
LOUISVILLE/SDF CLOUDY    83  75  77 CALM      29.97S HX  90
LOUISVILLE/LOU PTSUNNY   82  76  81 SW5       29.98S
FORT KNOX      CLOUDY    80  75  83 SW7       29.98R
$$

KYZ035>037-039>044-047>052-055>060-089>105-271600-
NORTHEAST KENTUCKY

CITY           SKY/WX    TMP DP  RH WIND       PRES   REMARKS
LEXINGTON      CLOUDY    83  73  72 W9        30.00F
COVINGTON      CLOUDY    79  76  90 W6        29.97S
FRANKFORT      CLOUDY    83  73  72 SW8       29.98S
$$

KYZ054-064>069-076>088-106>120-271600-
SOUTHEAST KENTUCKY

CITY           SKY/WX    TMP DP  RH WIND       PRES   REMARKS
JACKSON        CLOUDY    74  72  93 CALM      30.02F THUNDER FOG
LONDON         MOSUNNY   83  71  67 SW12      30.04F
SOMERSET       CLOUDY    82  72  69 W10       30.04F
MIDDLESBORO    CLOUDY    82  73  74 S7        30.05F
MONTICELLO     PTSUNNY   86  77  74 W14       30.05F HX  97
$$





USA.gov is the U.S. government's official web portal to all federal, state and local government web resources and services.